CCA3411 ZGHA-ZPPP

Flight info

Callsign CCA3411
Flight time 1h 28m
Altitude 38100
Route OLT9W OLTUS W226 IPMUG W611 BIVAV W138 DYG W140 HUY A581 QNX W136 XISLI XIS2L
Aircraft A20N/M-SDE2E3FGHIRWXY/LB1

Departure

Time 2026-04-26 02:46
Airport Changsha Huanghua International Airport (ZGHA)

Arrival

Time 2026-04-26 04:14
Airport Kunming Changshui International Airport (ZPPP)
Time Latitude Longitude Altitude Speed Heading
2026-04-26 02:05 28.19336 113.21543 215 ft 0 kts 239°
2026-04-26 02:30 28.19343 113.21555 215 ft 2 kts 239°
2026-04-26 02:30 28.19355 113.21579 219 ft 4 kts 239°
2026-04-26 02:31 28.19336 113.21543 215 ft 0 kts 240°
2026-04-26 02:32 28.19339 113.21548 214 ft 1 kts 243°
2026-04-26 02:32 28.19344 113.21562 213 ft 4 kts 249°
2026-04-26 02:32 28.19358 113.21596 215 ft 5 kts 248°
2026-04-26 02:32 28.19358 113.21632 214 ft 5 kts 308°
2026-04-26 02:33 28.19331 113.21649 213 ft 2 kts 356°
2026-04-26 02:33 28.19329 113.21649 212 ft 0 kts 356°
2026-04-26 02:37 28.19332 113.21649 213 ft 2 kts 356°
2026-04-26 02:37 28.19359 113.21647 215 ft 6 kts 356°
2026-04-26 02:37 28.19363 113.21647 216 ft 0 kts 356°
2026-04-26 02:37 28.19370 113.21650 213 ft 3 kts 22°
2026-04-26 02:38 28.19392 113.21674 218 ft 6 kts 58°
2026-04-26 02:38 28.19408 113.21727 209 ft 9 kts 61°
2026-04-26 02:38 28.19468 113.21752 210 ft 11 kts
2026-04-26 02:38 28.19561 113.21750 210 ft 15 kts 358°
2026-04-26 02:39 28.19677 113.21739 209 ft 19 kts 355°
2026-04-26 02:39 28.19817 113.21728 201 ft 22 kts 356°
2026-04-26 02:39 28.19977 113.21720 204 ft 24 kts 357°
2026-04-26 02:39 28.20155 113.21710 205 ft 27 kts 357°
2026-04-26 02:40 28.20347 113.21696 203 ft 29 kts 357°
2026-04-26 02:40 28.20525 113.21687 198 ft 6 kts 356°
2026-04-26 02:40 28.20540 113.21686 194 ft 3 kts 356°
2026-04-26 02:40 28.20575 113.21688 199 ft 7 kts 14°
2026-04-26 02:41 28.20609 113.21738 199 ft 10 kts 73°
2026-04-26 02:41 28.20612 113.21757 197 ft 0 kts 81°
2026-04-26 02:44 28.20613 113.21771 195 ft 4 kts 81°
2026-04-26 02:44 28.20617 113.21825 192 ft 9 kts 87°
2026-04-26 02:44 28.20611 113.21871 196 ft 2 kts 159°
2026-04-26 02:45 28.20606 113.21871 201 ft 0 kts 174°
2026-04-26 02:45 28.20482 113.21884 198 ft 57 kts 176°
2026-04-26 02:45 28.19803 113.21920 207 ft 135 kts 176°
2026-04-26 02:46 28.18695 113.21992 519 ft 170 kts 177°
2026-04-26 02:46 28.17480 113.22063 1242 ft 180 kts 178°
2026-04-26 02:46 28.16177 113.22117 2075 ft 196 kts 179°
2026-04-26 02:46 28.14756 113.22134 2882 ft 214 kts 181°
2026-04-26 02:47 28.13161 113.22168 3503 ft 248 kts 178°
2026-04-26 02:47 28.11314 113.22312 3906 ft 284 kts 176°
2026-04-26 02:47 28.09268 113.22496 4439 ft 306 kts 176°
2026-04-26 02:47 28.07163 113.22672 5817 ft 291 kts 177°
2026-04-26 02:48 28.05213 113.22818 7171 ft 280 kts 177°
2026-04-26 02:48 28.03242 113.22950 8082 ft 288 kts 179°
2026-04-26 02:48 28.01229 113.23272 8865 ft 298 kts 162°
2026-04-26 02:48 27.99440 113.24486 9724 ft 306 kts 136°
2026-04-26 02:49 27.98210 113.26468 10421 ft 312 kts 111°
2026-04-26 02:49 27.97804 113.28864 11229 ft 313 kts 86°
2026-04-26 02:49 27.98267 113.31233 11957 ft 314 kts 62°
2026-04-26 02:49 27.99547 113.33207 12717 ft 312 kts 37°
2026-04-26 02:50 28.01413 113.34414 13470 ft 309 kts 13°
2026-04-26 02:50 28.03527 113.34656 14170 ft 306 kts 352°
2026-04-26 02:50 28.05645 113.34355 14892 ft 308 kts 348°
2026-04-26 02:50 28.07743 113.33837 15575 ft 308 kts 335°
2026-04-26 02:51 28.09564 113.32603 16250 ft 305 kts 315°
2026-04-26 02:51 28.10868 113.30730 16927 ft 305 kts 295°
2026-04-26 02:51 28.11456 113.28435 17605 ft 306 kts 275°
2026-04-26 02:51 28.11569 113.26666 18104 ft 309 kts 274°
2026-04-26 02:52 28.11710 113.24257 18734 ft 311 kts 274°
2026-04-26 02:52 28.11856 113.21803 19333 ft 313 kts 274°
2026-04-26 02:52 28.12006 113.19333 19939 ft 316 kts 275°
2026-04-26 02:52 28.12160 113.16839 20544 ft 318 kts 275°
2026-04-26 02:53 28.12316 113.14338 21145 ft 321 kts 275°
2026-04-26 02:53 28.12474 113.11806 21748 ft 323 kts 275°
2026-04-26 02:53 28.12634 113.09256 22329 ft 326 kts 275°
2026-04-26 02:53 28.12794 113.06669 22912 ft 329 kts 275°
2026-04-26 02:54 28.12954 113.04069 23523 ft 332 kts 276°
2026-04-26 02:54 28.13113 113.01463 24044 ft 333 kts 276°
2026-04-26 02:54 28.13274 112.98837 24551 ft 335 kts 276°
2026-04-26 02:54 28.13435 112.96194 25043 ft 337 kts 276°
2026-04-26 02:55 28.13597 112.93535 25530 ft 340 kts 276°
2026-04-26 02:55 28.13705 112.91761 25784 ft 342 kts 276°
2026-04-26 02:55 28.13867 112.89060 25942 ft 343 kts 276°
2026-04-26 02:55 28.14078 112.85457 25990 ft 342 kts 276°
2026-04-26 02:56 28.14234 112.82772 25983 ft 342 kts 276°
2026-04-26 02:56 28.14338 112.80992 25982 ft 342 kts 276°
2026-04-26 02:56 28.14494 112.78294 25984 ft 343 kts 276°
2026-04-26 02:56 28.14651 112.75608 25982 ft 343 kts 276°
2026-04-26 02:57 28.14808 112.72899 25980 ft 343 kts 275°
2026-04-26 02:57 28.14964 112.70202 25973 ft 343 kts 275°
2026-04-26 02:57 28.15119 112.67506 25978 ft 344 kts 275°
2026-04-26 02:57 28.15274 112.64798 25981 ft 344 kts 275°
2026-04-26 02:58 28.15429 112.62084 25981 ft 345 kts 275°
2026-04-26 02:58 28.15582 112.59383 25980 ft 344 kts 275°
2026-04-26 02:58 28.15735 112.56670 25979 ft 344 kts 275°
2026-04-26 02:58 28.15887 112.53963 25977 ft 344 kts 275°
2026-04-26 02:59 28.16038 112.51263 25977 ft 344 kts 275°
2026-04-26 02:59 28.16189 112.48558 25977 ft 344 kts 275°
2026-04-26 02:59 28.16340 112.45850 25978 ft 344 kts 275°
2026-04-26 02:59 28.16491 112.43163 26086 ft 348 kts 275°
2026-04-26 03:00 28.16645 112.40391 26629 ft 348 kts 274°
2026-04-26 03:00 28.16793 112.37674 26977 ft 355 kts 275°
2026-04-26 03:00 28.16949 112.34838 27085 ft 367 kts 275°
2026-04-26 03:00 28.17111 112.31906 27191 ft 379 kts 275°
2026-04-26 03:01 28.17279 112.28834 27287 ft 391 kts 275°
2026-04-26 03:01 28.17444 112.25758 27400 ft 402 kts 275°
2026-04-26 03:01 28.17614 112.22555 27594 ft 410 kts 275°
2026-04-26 03:01 28.17950 112.19332 27990 ft 412 kts 279°
2026-04-26 03:02 28.18345 112.16110 28391 ft 415 kts 278°
2026-04-26 03:02 28.18736 112.12869 28815 ft 416 kts 278°
2026-04-26 03:02 28.19131 112.09590 29088 ft 421 kts 278°
2026-04-26 03:02 28.19525 112.06297 29451 ft 423 kts 278°
2026-04-26 03:03 28.19920 112.02989 29824 ft 425 kts 278°
2026-04-26 03:03 28.20430 111.99680 30165 ft 427 kts 284°
2026-04-26 03:03 28.21332 111.96457 30535 ft 428 kts 291°
2026-04-26 03:03 28.22602 111.93414 30903 ft 429 kts 299°
2026-04-26 03:04 28.24195 111.90553 31287 ft 429 kts 302°
2026-04-26 03:04 28.25822 111.87734 31761 ft 426 kts 302°
2026-04-26 03:04 28.27433 111.84922 32341 ft 421 kts 302°
2026-04-26 03:04 28.29019 111.82147 32860 ft 417 kts 302°
2026-04-26 03:05 28.30565 111.79441 33367 ft 413 kts 302°
2026-04-26 03:05 28.32902 111.75353 34029 ft 409 kts 302°
2026-04-26 03:05 28.35946 111.70029 34816 ft 404 kts 302°
2026-04-26 03:05 28.38978 111.64715 35437 ft 400 kts 302°
2026-04-26 03:06 28.41995 111.59419 36032 ft 398 kts 302°
2026-04-26 03:06 28.44995 111.54146 36547 ft 397 kts 302°
2026-04-26 03:06 28.47976 111.48905 37104 ft 394 kts 302°
2026-04-26 03:06 28.50980 111.43615 37692 ft 390 kts 302°
2026-04-26 03:07 28.53874 111.38516 38062 ft 389 kts 302°
2026-04-26 03:07 28.56802 111.33347 38065 ft 387 kts 302°
2026-04-26 03:07 28.62634 111.23027 38051 ft 387 kts 302°
2026-04-26 03:08 28.68482 111.12712 38057 ft 388 kts 302°
2026-04-26 03:08 28.74391 111.02406 38053 ft 390 kts 301°
2026-04-26 03:09 28.80301 110.92054 38061 ft 390 kts 301°
2026-04-26 03:09 28.86204 110.81686 38063 ft 389 kts 301°
2026-04-26 03:10 28.92155 110.71213 38061 ft 394 kts 301°
2026-04-26 03:10 28.98111 110.60698 38067 ft 395 kts 301°
2026-04-26 03:11 29.04072 110.50153 38064 ft 394 kts 301°
2026-04-26 03:11 29.06559 110.44624 38072 ft 394 kts 285°
2026-04-26 03:11 29.06956 110.38390 38071 ft 398 kts 263°
2026-04-26 03:12 29.05045 110.32439 38084 ft 408 kts 242°
2026-04-26 03:12 29.02051 110.26898 38079 ft 408 kts 243°
2026-04-26 03:12 28.96154 110.15843 38080 ft 407 kts 244°
2026-04-26 03:13 28.90219 110.04787 38061 ft 409 kts 243°
2026-04-26 03:13 28.84225 109.93694 38075 ft 413 kts 243°
2026-04-26 03:14 28.80236 109.86341 38072 ft 412 kts 243°
2026-04-26 03:14 28.77217 109.80773 38077 ft 412 kts 243°
2026-04-26 03:15 28.74224 109.75248 38070 ft 413 kts 242°
2026-04-26 03:15 28.71175 109.69638 38065 ft 413 kts 242°
2026-04-26 03:16 28.68152 109.64078 38070 ft 413 kts 242°
2026-04-26 03:16 28.65153 109.58566 38062 ft 412 kts 241°
2026-04-26 03:17 28.62121 109.53002 38063 ft 413 kts 241°
2026-04-26 03:17 28.59083 109.47436 38068 ft 413 kts 241°
2026-04-26 03:18 28.56330 109.41688 38070 ft 413 kts 246°
2026-04-26 03:18 28.53815 109.35824 38070 ft 413 kts 246°
2026-04-26 03:19 28.51281 109.29950 38068 ft 413 kts 246°
2026-04-26 03:19 28.48764 109.24128 38074 ft 413 kts 246°
2026-04-26 03:20 28.46212 109.18235 38074 ft 413 kts 246°
2026-04-26 03:20 28.43684 109.12420 38064 ft 413 kts 245°
2026-04-26 03:21 28.41084 109.06569 38069 ft 417 kts 245°
2026-04-26 03:21 28.38471 109.00702 38073 ft 416 kts 245°
2026-04-26 03:22 28.35866 108.94838 38067 ft 415 kts 245°
2026-04-26 03:22 28.33254 108.88974 38070 ft 416 kts 245°
2026-04-26 03:23 28.30639 108.83096 38074 ft 416 kts 245°
2026-04-26 03:23 28.28017 108.77237 38068 ft 417 kts 244°
2026-04-26 03:24 28.25385 108.71342 38087 ft 421 kts 244°
2026-04-26 03:24 28.22734 108.65437 38075 ft 419 kts 244°
2026-04-26 03:25 28.20100 108.59572 38079 ft 417 kts 244°
2026-04-26 03:25 28.17464 108.53704 38082 ft 418 kts 244°
2026-04-26 03:26 28.14828 108.47836 38078 ft 418 kts 244°
2026-04-26 03:26 28.12182 108.41969 38073 ft 418 kts 244°
2026-04-26 03:27 28.09528 108.36091 38087 ft 420 kts 244°
2026-04-26 03:27 28.06881 108.30241 38087 ft 419 kts 244°
2026-04-26 03:28 28.04233 108.24382 38088 ft 420 kts 244°
2026-04-26 03:28 28.01572 108.18502 38083 ft 420 kts 244°
2026-04-26 03:29 27.98905 108.12627 38089 ft 417 kts 245°
2026-04-26 03:29 27.96259 108.06803 38089 ft 416 kts 245°
2026-04-26 03:30 27.93606 108.00968 38091 ft 418 kts 245°
2026-04-26 03:30 27.90947 107.95134 38094 ft 417 kts 245°
2026-04-26 03:31 27.88287 107.89301 38095 ft 417 kts 245°
2026-04-26 03:31 27.85623 107.83473 38099 ft 417 kts 245°
2026-04-26 03:32 27.82975 107.77680 38099 ft 418 kts 245°
2026-04-26 03:32 27.80346 107.71839 38101 ft 417 kts 246°
2026-04-26 03:33 27.77740 107.65976 38100 ft 416 kts 246°
2026-04-26 03:33 27.75131 107.60125 38104 ft 417 kts 246°
2026-04-26 03:34 27.72514 107.54276 38100 ft 417 kts 246°
2026-04-26 03:34 27.69897 107.48434 38104 ft 417 kts 246°
2026-04-26 03:35 27.67277 107.42591 38100 ft 417 kts 246°
2026-04-26 03:35 27.64659 107.36768 38097 ft 415 kts 246°
2026-04-26 03:36 27.62047 107.30957 38093 ft 416 kts 246°
2026-04-26 03:36 27.59446 107.25186 38096 ft 415 kts 246°
2026-04-26 03:37 27.56822 107.19371 38079 ft 415 kts 246°
2026-04-26 03:37 27.54204 107.13563 38076 ft 415 kts 246°
2026-04-26 03:38 27.51580 107.07749 38089 ft 415 kts 246°
2026-04-26 03:38 27.48964 107.01963 38064 ft 414 kts 245°
2026-04-26 03:39 27.46349 106.96175 38075 ft 414 kts 246°
2026-04-26 03:39 27.43762 106.90372 38069 ft 414 kts 246°
2026-04-26 03:40 27.41192 106.84607 38053 ft 414 kts 246°
2026-04-26 03:40 27.38594 106.78808 38075 ft 414 kts 246°
2026-04-26 03:41 27.35995 106.73017 38069 ft 415 kts 245°
2026-04-26 03:41 27.32279 106.64781 38043 ft 414 kts 245°
2026-04-26 03:42 27.27044 106.53221 38039 ft 416 kts 245°
2026-04-26 03:42 27.21796 106.41663 38043 ft 414 kts 245°
2026-04-26 03:43 27.16561 106.30147 38040 ft 413 kts 245°
2026-04-26 03:43 27.11295 106.18593 38063 ft 417 kts 244°
2026-04-26 03:44 27.06003 106.07011 38068 ft 417 kts 244°
2026-04-26 03:44 27.03831 106.01006 38057 ft 415 kts 255°
2026-04-26 03:44 27.02598 105.94678 38051 ft 418 kts 258°
2026-04-26 03:45 27.00181 105.81977 38004 ft 417 kts 258°
2026-04-26 03:45 26.97749 105.69261 37991 ft 417 kts 258°
2026-04-26 03:46 26.95322 105.56621 38014 ft 419 kts 258°
2026-04-26 03:47 26.91621 105.37476 38022 ft 420 kts 257°
2026-04-26 03:47 26.89113 105.24595 37997 ft 424 kts 257°
2026-04-26 03:48 26.86595 105.11727 37969 ft 424 kts 257°
2026-04-26 03:48 26.84066 104.98855 37934 ft 425 kts 257°
2026-04-26 03:48 26.82788 104.92383 37429 ft 424 kts 257°
2026-04-26 03:49 26.81521 104.85969 36900 ft 419 kts 257°
2026-04-26 03:49 26.80235 104.79529 36425 ft 430 kts 257°
2026-04-26 03:49 26.78932 104.73033 35926 ft 425 kts 257°
2026-04-26 03:49 26.77635 104.66582 35446 ft 428 kts 256°
2026-04-26 03:50 26.75088 104.60496 34993 ft 435 kts 233°
2026-04-26 03:50 26.70710 104.56006 34518 ft 439 kts 220°
2026-04-26 03:50 26.65919 104.51649 34078 ft 447 kts 221°
2026-04-26 03:50 26.61091 104.47261 33587 ft 444 kts 221°
2026-04-26 03:51 26.56302 104.42914 33075 ft 444 kts 220°
2026-04-26 03:51 26.51474 104.38532 32574 ft 450 kts 220°
2026-04-26 03:51 26.46625 104.34146 32091 ft 445 kts 220°
2026-04-26 03:51 26.41823 104.29807 31606 ft 444 kts 221°
2026-04-26 03:52 26.37000 104.25450 31126 ft 445 kts 221°
2026-04-26 03:52 26.32182 104.21103 30684 ft 446 kts 221°
2026-04-26 03:52 26.27368 104.16766 30228 ft 443 kts 221°
2026-04-26 03:52 26.22590 104.12465 29711 ft 439 kts 221°
2026-04-26 03:53 26.17856 104.08208 29186 ft 435 kts 221°
2026-04-26 03:53 26.13195 104.04024 28653 ft 425 kts 221°
2026-04-26 03:53 26.08612 103.99909 28141 ft 424 kts 221°
2026-04-26 03:53 26.04088 103.95849 27625 ft 421 kts 222°
2026-04-26 03:54 25.99537 103.91743 27169 ft 417 kts 224°
2026-04-26 03:54 25.95685 103.87055 26681 ft 410 kts 236°
2026-04-26 03:54 25.92471 103.81816 26211 ft 411 kts 237°
2026-04-26 03:54 25.89372 103.76558 25729 ft 402 kts 245°
2026-04-26 03:55 25.87965 103.70593 25268 ft 401 kts 268°
2026-04-26 03:55 25.88132 103.64417 24810 ft 398 kts 271°
2026-04-26 03:55 25.88310 103.58285 24385 ft 396 kts 271°
2026-04-26 03:55 25.88482 103.52136 23343 ft 401 kts 271°
2026-04-26 03:56 25.88652 103.46042 22190 ft 391 kts 271°
2026-04-26 03:56 25.88814 103.40145 21028 ft 382 kts 271°
2026-04-26 03:56 25.88972 103.34252 19837 ft 373 kts 270°
2026-04-26 03:56 25.89120 103.28614 18486 ft 374 kts 270°
2026-04-26 03:57 25.89273 103.23003 17288 ft 367 kts 270°
2026-04-26 03:57 25.89348 103.20189 16765 ft 362 kts 271°
2026-04-26 03:57 25.89419 103.17404 16127 ft 361 kts 270°
2026-04-26 03:57 25.89489 103.14638 15607 ft 357 kts 270°
2026-04-26 03:58 25.89559 103.11878 14989 ft 357 kts 271°
2026-04-26 03:58 25.89551 103.09162 14714 ft 345 kts 266°
2026-04-26 03:58 25.89299 103.06563 14615 ft 338 kts 263°
2026-04-26 03:58 25.89032 103.03935 14602 ft 345 kts 263°
2026-04-26 03:59 25.88761 103.01292 14595 ft 342 kts 262°
2026-04-26 03:59 25.88272 102.98708 14595 ft 343 kts 255°
2026-04-26 03:59 25.87508 102.96172 14596 ft 345 kts 251°
2026-04-26 03:59 25.86717 102.93674 14597 ft 344 kts 251°
2026-04-26 04:00 25.85864 102.91193 14386 ft 343 kts 244°
2026-04-26 04:00 25.84438 102.89077 14160 ft 347 kts 224°
2026-04-26 04:00 25.82740 102.87801 13969 ft 350 kts 207°
2026-04-26 04:00 25.80410 102.87103 13727 ft 356 kts 187°
2026-04-26 04:01 25.77921 102.87360 13473 ft 368 kts 167°
2026-04-26 04:01 25.75590 102.88547 13232 ft 371 kts 150°
2026-04-26 04:01 25.73512 102.90236 12982 ft 371 kts 144°
2026-04-26 04:01 25.71499 102.92029 12744 ft 371 kts 144°
2026-04-26 04:02 25.69463 102.93793 12488 ft 370 kts 146°
2026-04-26 04:02 25.67404 102.95479 12232 ft 366 kts 147°
2026-04-26 04:02 25.65335 102.97108 11995 ft 361 kts 148°
2026-04-26 04:02 25.63292 102.98674 11832 ft 352 kts 149°
2026-04-26 04:03 25.61306 103.00177 11733 ft 337 kts 149°
2026-04-26 04:03 25.59436 103.01610 11727 ft 320 kts 149°
2026-04-26 04:03 25.57649 103.02980 11726 ft 304 kts 149°
2026-04-26 04:03 25.55953 103.04273 11721 ft 287 kts 149°
2026-04-26 04:04 25.54348 103.05500 11727 ft 272 kts 149°
2026-04-26 04:04 25.52850 103.06650 11725 ft 257 kts 149°
2026-04-26 04:04 25.51342 103.07792 11731 ft 266 kts 150°
2026-04-26 04:04 25.49834 103.08912 11654 ft 261 kts 154°
2026-04-26 04:05 25.48200 103.09743 11527 ft 252 kts 168°
2026-04-26 04:05 25.46514 103.10187 11425 ft 246 kts 173°
2026-04-26 04:05 25.44901 103.10576 11333 ft 234 kts 172°
2026-04-26 04:05 25.43359 103.10967 11244 ft 221 kts 173°
2026-04-26 04:06 25.41885 103.11330 11097 ft 214 kts 173°
2026-04-26 04:06 25.40429 103.11685 10784 ft 215 kts 172°
2026-04-26 04:06 25.38991 103.12026 10642 ft 206 kts 173°
2026-04-26 04:06 25.37592 103.12368 10315 ft 204 kts 172°
2026-04-26 04:07 25.36234 103.12708 10016 ft 200 kts 172°
2026-04-26 04:07 25.34876 103.13042 9796 ft 200 kts 173°
2026-04-26 04:07 25.33506 103.13347 9744 ft 199 kts 178°
2026-04-26 04:07 25.32186 103.13187 9751 ft 184 kts 206°
2026-04-26 04:08 25.31187 103.12444 9762 ft 165 kts 220°
2026-04-26 04:08 25.30328 103.11696 9779 ft 150 kts 220°
2026-04-26 04:08 25.29553 103.11032 9824 ft 144 kts 220°
2026-04-26 04:08 25.28720 103.10335 9789 ft 147 kts 220°
2026-04-26 04:09 25.27924 103.09650 9788 ft 146 kts 220°
2026-04-26 04:09 25.27125 103.08951 9800 ft 146 kts 220°
2026-04-26 04:09 25.26324 103.08251 9801 ft 146 kts 221°
2026-04-26 04:09 25.25527 103.07554 9805 ft 147 kts 221°
2026-04-26 04:10 25.24738 103.06865 9794 ft 146 kts 220°
2026-04-26 04:10 25.23941 103.06169 9803 ft 146 kts 220°
2026-04-26 04:10 25.23136 103.05464 9713 ft 148 kts 221°
2026-04-26 04:10 25.22341 103.04769 9536 ft 145 kts 221°
2026-04-26 04:11 25.21554 103.04081 9349 ft 143 kts 221°
2026-04-26 04:11 25.20776 103.03400 9168 ft 143 kts 221°
2026-04-26 04:11 25.19989 103.02712 8995 ft 147 kts 221°
2026-04-26 04:11 25.19191 103.02014 8798 ft 144 kts 220°
2026-04-26 04:12 25.18412 103.01335 8600 ft 144 kts 220°
2026-04-26 04:12 25.17642 103.00658 8414 ft 139 kts 220°
2026-04-26 04:12 25.16871 102.99987 8227 ft 137 kts 220°
2026-04-26 04:12 25.16135 102.99342 8071 ft 137 kts 220°
2026-04-26 04:13 25.15407 102.98706 7882 ft 127 kts 221°
2026-04-26 04:13 25.14695 102.98079 7712 ft 135 kts 219°
2026-04-26 04:13 25.13966 102.97444 7503 ft 136 kts 218°
2026-04-26 04:13 25.13197 102.96767 7278 ft 139 kts 219°
2026-04-26 04:14 25.12425 102.96096 7107 ft 145 kts 219°
2026-04-26 04:14 25.11648 102.95417 6925 ft 138 kts 219°
2026-04-26 04:14 25.10946 102.94800 6891 ft 107 kts 218°
2026-04-26 04:14 25.10528 102.94431 6892 ft 49 kts 218°
2026-04-26 04:15 25.10400 102.94313 6894 ft 13 kts 220°
2026-04-26 04:15 25.10339 102.94225 6894 ft 17 kts 235°
2026-04-26 04:15 25.10278 102.94085 6894 ft 23 kts 244°
2026-04-26 04:15 25.10219 102.93918 6893 ft 22 kts 271°
2026-04-26 04:16 25.10311 102.93766 6893 ft 27 kts 305°
2026-04-26 04:16 25.10429 102.93586 6893 ft 30 kts 297°
2026-04-26 04:16 25.10479 102.93379 6893 ft 25 kts 280°
2026-04-26 04:16 25.10487 102.93231 6894 ft 19 kts 300°
2026-04-26 04:17 25.10594 102.93148 6893 ft 20 kts 335°
2026-04-26 04:17 25.10725 102.93098 6893 ft 21 kts 343°
2026-04-26 04:17 25.10842 102.93017 6893 ft 20 kts 293°
2026-04-26 04:17 25.10912 102.92901 6893 ft 15 kts 272°
2026-04-26 04:18 25.10873 102.92844 6893 ft 9 kts 220°
2026-04-26 04:18 25.10822 102.92800 6893 ft 10 kts 217°
2026-04-26 04:18 25.10768 102.92810 6893 ft 9 kts 150°
2026-04-26 04:18 25.10716 102.92849 6894 ft 5 kts 146°
2026-04-26 04:19 25.10715 102.92850 6894 ft 0 kts 146°